Weather History for Ft Lauderdale, FL

Change the Weather History Date:

Thursday, November 22, 2012

  Actual Average Record
Temperature  
Mean Temperature 68 °F 75 °F  
Max Temperature 77 °F 81 °F 87 °F (1947)
Min Temperature 58 °F 68 °F 43 °F (1952)
Degree Days  
Heating Degree Days 0 0  
Month to date heating degree days 2 0  
Since 1 July heating degree days 2 0  
Cooling Degree Days 3 10  
Month to date cooling degree days 155 246  
Year to date cooling degree days 4312 4440  
Growing Degree Days 16 (Base 50)    
Moisture  
Dew Point 49 °F    
Average Humidity 60    
Maximum Humidity 78    
Minimum Humidity 41    
Precipitation  
Precipitation 0.00 in 0.07 in 1.15 in (1985)
Month to date precipitation 0.49 2.51  
Year to date precipitation 59.78 58.99  
Snow  
Snow 0.00 in - - ()
Month to date snowfall 0.0  
Since 1 July snowfall 0.0  
Since 1 September snowfall 0.0  
Snow Depth 0.00 in    
Sea Level Pressure  
Sea Level Pressure 30.04 in    
Wind  
Wind Speed 13 mph (NNW)    
Max Wind Speed 21 mph    
Max Gust Speed 28 mph    
Visibility 10 miles    
Events      
T = Trace of Precipitation, MM = Missing Value Source: NWS Daily Summary

Daily Weather History Graph

Daily Weather History Graph

Search for Another Location

Airport:

Trip Planner

Search our weather history database for the weather conditions in past years. The results will help you decide how hot, cold, wet, or windy it might be!

Date:

Astronomy

Nov. 22, 2012 Rise Set
Actual Time 6:44 AM EST 5:29 PM EST
Civil Twilight 6:19 AM EST 5:53 PM EST
Nautical Twilight 5:51 AM EST 6:21 PM EST
Astronomical Twilight 5:23 AM EST 6:49 PM EST
Moon 1:48 PM EST (11/22) 1:31 AM EST (11/22)
Length of Visible Light 11h 33m
Length of Day
10h 44m
Waxing Gibbous, 71% of the Moon is Illuminated
Nov 22
Waxing Gibbous
Nov 28
Full
Dec 6
Last Quarter
Dec 13
New
Dec 20
First Quarter

Hourly Weather History & Observations

Time (EST) Temp. Dew Point Humidity Pressure Visibility Wind Dir Wind Speed Gust Speed Precip Events Conditions
12:53 AM 60.1 °F 48.9 °F 67% 30.02 in 10.0 mi NNW 11.5 mph - N/A   Clear
1:53 AM 59.0 °F 50.0 °F 72% 30.01 in 10.0 mi NNW 9.2 mph - N/A   Clear
2:53 AM 60.1 °F 46.0 °F 60% 30.00 in 10.0 mi NNW 11.5 mph - N/A   Clear
3:53 AM 60.1 °F 46.0 °F 60% 30.01 in 10.0 mi NNW 9.2 mph - N/A   Clear
4:53 AM 59.0 °F 48.0 °F 67% 30.00 in 10.0 mi NW 11.5 mph - N/A   Clear
5:53 AM 57.9 °F 48.9 °F 72% 30.01 in 10.0 mi NW 9.2 mph - N/A   Clear
6:53 AM 57.9 °F 48.9 °F 72% 30.03 in 10.0 mi NNW 10.4 mph - N/A   Clear
7:53 AM 60.1 °F 48.9 °F 67% 30.04 in 10.0 mi NW 11.5 mph 19.6 mph N/A   Clear
8:53 AM 64.0 °F 50.0 °F 60% 30.06 in 10.0 mi NNW 16.1 mph 23.0 mph N/A   Clear
9:53 AM 68.0 °F 51.1 °F 55% 30.07 in 10.0 mi NNW 15.0 mph - N/A   Clear
10:53 AM 70.0 °F 52.0 °F 53% 30.06 in 10.0 mi NNW 17.3 mph 25.3 mph N/A   Clear
11:53 AM 73.0 °F 53.1 °F 49% 30.04 in 10.0 mi NNW 16.1 mph - N/A   Clear
12:53 PM 75.0 °F 53.1 °F 46% 30.01 in 10.0 mi NNW 15.0 mph - N/A   Partly Cloudy
1:53 PM 75.0 °F 52.0 °F 44% 30.00 in 10.0 mi NNW 19.6 mph 25.3 mph N/A   Partly Cloudy
2:53 PM 75.9 °F 51.1 °F 42% 30.00 in 10.0 mi North 16.1 mph - N/A   Partly Cloudy
3:53 PM 73.9 °F 48.0 °F 40% 30.01 in 10.0 mi NNW 15.0 mph - N/A   Partly Cloudy
4:53 PM 72.0 °F 46.0 °F 40% 30.03 in 10.0 mi North 12.7 mph - N/A   Partly Cloudy
5:53 PM 68.0 °F 50.0 °F 52% 30.06 in 10.0 mi North 11.5 mph - N/A   Partly Cloudy
6:53 PM 66.0 °F 48.9 °F 54% 30.08 in 10.0 mi North 13.8 mph - N/A   Clear
7:53 PM 64.0 °F 46.9 °F 54% 30.09 in 10.0 mi NNW 13.8 mph - N/A   Clear
8:53 PM 63.0 °F 46.9 °F 56% 30.10 in 10.0 mi NNW 16.1 mph 23.0 mph N/A   Clear
9:53 PM 61.0 °F 46.9 °F 60% 30.11 in 10.0 mi NNW 13.8 mph - N/A   Clear
10:53 PM 60.1 °F 48.0 °F 64% 30.10 in 10.0 mi NNW 12.7 mph - N/A   Clear
11:53 PM 59.0 °F 48.0 °F 67% 30.10 in 10.0 mi NNW 10.4 mph - N/A   Clear